| time (UTC) | temp C | wind direction | speed KPH | gust KPH | rain 1hr cm | rain 24hr cm | rain mn cm | humidity % | barometer mb |
| 20260507203007 | 16 | 46 | 1.6 | 6.4 | 0.00 | 0.03 | 0.03 | 75 | 1006.7 |
| 20260507202007 | 16 | 6 | 0.0 | 4.8 | 0.00 | 0.03 | 0.03 | 75 | 1006.7 |
| 20260507201006 | 16 | 1 | 0.0 | 1.6 | 0.00 | 0.03 | 0.03 | 77 | 1006.8 |
| 20260507200007 | 16 | 1 | 0.0 | 3.2 | 0.00 | 0.03 | 0.03 | 78 | 1006.9 |
| 20260507195006 | 16 | 99 | 1.6 | 6.4 | 0.00 | 0.03 | 0.03 | 77 | 1006.9 |
| 20260507194008 | 16 | 162 | 4.8 | 8.0 | 0.00 | 0.03 | 0.03 | 74 | 1006.7 |
| 20260507193009 | 16 | 169 | 6.4 | 12.9 | 0.00 | 0.03 | 0.03 | 75 | 1006.6 |
| 20260507192008 | 16 | 164 | 4.8 | 6.4 | 0.00 | 0.03 | 0.03 | 74 | 1006.6 |
| 20260507191008 | 16 | 188 | 4.8 | 9.7 | 0.00 | 0.03 | 0.03 | 75 | 1006.5 |
| 20260507190009 | 16 | 176 | 4.8 | 9.7 | 0.00 | 0.03 | 0.03 | 76 | 1006.2 |
| 20260507185008 | 16 | 145 | 4.8 | 9.7 | 0.00 | 0.03 | 0.03 | 75 | 1006.2 |
| 20260507184008 | 16 | 163 | 4.8 | 8.0 | 0.00 | 0.03 | 0.03 | 76 | 1006.1 |
| 20260507183009 | 16 | 137 | 3.2 | 6.4 | 0.00 | 0.03 | 0.03 | 75 | 1006.4 |
| 20260507182008 | 16 | 135 | 3.2 | 8.0 | 0.00 | 0.03 | 0.03 | 74 | 1006.3 |
| 20260507181008 | 16 | 135 | 1.6 | 4.8 | 0.00 | 0.03 | 0.03 | 74 | 1006.5 |
| 20260507180009 | 16 | 119 | 0.0 | 3.2 | 0.00 | 0.03 | 0.03 | 74 | 1006.4 |
| 20260507175007 | 17 | 90 | 0.0 | 3.2 | 0.00 | 0.03 | 0.03 | 75 | 1006.4 |
| 20260507174008 | 17 | 90 | 0.0 | 4.8 | 0.00 | 0.03 | 0.03 | 75 | 1006.2 |
| 20260507173010 | 17 | 135 | 1.6 | 6.4 | 0.00 | 0.03 | 0.03 | 75 | 1006.0 |
| 20260507172010 | 17 | 135 | 0.0 | 3.2 | 0.00 | 0.03 | 0.03 | 78 | 1006.0 |
| 20260507171014 | 17 | 90 | 0.0 | 3.2 | 0.00 | 0.03 | 0.03 | 74 | 1006.2 |
| 20260507170011 | 17 | 100 | 1.6 | 6.4 | 0.00 | 0.03 | 0.03 | 74 | 1006.0 |
| 20260507165011 | 17 | 106 | 0.0 | 4.8 | 0.00 | 0.03 | 0.03 | 72 | 1005.9 |
| 20260507164009 | 17 | 97 | 0.0 | 3.2 | 0.00 | 0.03 | 0.03 | 72 | 1005.9 |
| 20260507163010 | 17 | 90 | 0.0 | 3.2 | 0.00 | 0.03 | 0.03 | 71 | 1005.8 |
| 20260507162009 | 17 | 1 | 0.0 | 3.2 | 0.00 | 0.03 | 0.03 | 72 | 1006.0 |
| 20260507161009 | 17 | 336 | 0.0 | 3.2 | 0.00 | 0.03 | 0.03 | 74 | 1006.2 |
| 20260507160010 | 17 | 20 | 1.6 | 12.9 | 0.00 | 0.03 | 0.03 | 73 | 1006.1 |
| 20260507155009 | 17 | 49 | 3.2 | 14.5 | 0.00 | 0.03 | 0.03 | 79 | 1006.1 |
| 20260507154009 | 17 | 58 | 1.6 | 8.0 | 0.00 | 0.03 | 0.03 | 80 | 1006.0 |
| 20260507153009 | 17 | 266 | 0.0 | 3.2 | 0.00 | 0.03 | 0.03 | 76 | 1005.9 |
| 20260507152008 | 17 | 329 | 0.0 | 3.2 | 0.00 | 0.03 | 0.03 | 77 | 1006.0 |
| 20260507151008 | 17 | 321 | 0.0 | 3.2 | 0.00 | 0.03 | 0.03 | 79 | 1006.0 |
| 20260507150011 | 17 | 301 | 0.0 | 3.2 | 0.00 | 0.03 | 0.03 | 80 | 1005.9 |
| 20260507145008 | 17 | 270 | 0.0 | 3.2 | 0.03 | 0.03 | 0.03 | 81 | 1006.2 |
| 20260507144010 | 16 | 270 | 0.0 | 3.2 | 0.03 | 0.03 | 0.03 | 83 | 1006.1 |
| 20260507143010 | 16 | 270 | 0.0 | 3.2 | 0.03 | 0.03 | 0.03 | 85 | 1006.1 |
| 20260507142009 | 16 | 270 | 0.0 | 3.2 | 0.03 | 0.03 | 0.03 | 86 | 1006.3 |
| 20260507141009 | 17 | 262 | 0.0 | 4.8 | 0.03 | 0.03 | 0.03 | 85 | 1006.4 |
| 20260507140011 | 17 | 204 | 3.2 | 6.4 | 0.03 | 0.03 | 0.03 | 82 | 1006.4 |
| 20260507135010 | 18 | 151 | 1.6 | 4.8 | 0.00 | 0.00 | 0.00 | 75 | 1006.1 |
| 20260507134009 | 18 | 128 | 1.6 | 4.8 | 0.00 | 0.00 | 0.00 | 72 | 1006.1 |
| 20260507133010 | 18 | 123 | 4.8 | 11.3 | 0.00 | 0.00 | 0.00 | 69 | 1006.3 |
| 20260507132009 | 18 | 121 | 3.2 | 9.7 | 0.00 | 0.00 | 0.00 | 67 | 1006.4 |
| 20260507131009 | 18 | 83 | 3.2 | 12.9 | 0.00 | 0.00 | 0.00 | 67 | 1006.4 |
| 20260507130009 | 18 | 88 | 3.2 | 20.9 | 0.00 | 0.00 | 0.00 | 67 | 1006.3 |
| 20260507125008 | 19 | 69 | 4.8 | 17.7 | 0.00 | 0.00 | 0.00 | 65 | 1006.7 |
| 20260507124008 | 19 | 68 | 4.8 | 24.1 | 0.00 | 0.00 | 0.00 | 65 | 1006.5 |
| 20260507123008 | 19 | 40 | 6.4 | 24.1 | 0.00 | 0.00 | 0.00 | 67 | 1006.6 |
| 20260507122007 | 19 | 62 | 4.8 | 17.7 | 0.00 | 0.00 | 0.00 | 66 | 1006.6 |
| 20260507121007 | 19 | 54 | 4.8 | 17.7 | 0.00 | 0.00 | 0.00 | 66 | 1006.5 |
| 20260507120014 | 19 | 41 | 6.4 | 24.1 | 0.00 | 0.00 | 0.00 | 65 | 1006.3 |
| 20260507115013 | 20 | 71 | 4.8 | 14.5 | 0.00 | 0.00 | 0.00 | 65 | 1006.5 |
| 20260507114011 | 19 | 31 | 6.4 | 14.5 | 0.00 | 0.00 | 0.00 | 67 | 1006.4 |
| 20260507113007 | 19 | 22 | 4.8 | 16.1 | 0.00 | 0.00 | 0.00 | 68 | 1006.4 |
| 20260507112007 | 19 | 39 | 4.8 | 17.7 | 0.00 | 0.00 | 0.00 | 67 | 1006.5 |
| 20260507111006 | 19 | 32 | 8.0 | 19.3 | 0.00 | 0.00 | 0.00 | 69 | 1006.6 |
| 20260507110007 | 19 | 37 | 8.0 | 17.7 | 0.00 | 0.00 | 0.00 | 69 | 1006.6 |
| 20260507105007 | 19 | 38 | 6.4 | 19.3 | 0.00 | 0.00 | 0.00 | 70 | 1006.7 |
| 20260507104007 | 18 | 29 | 4.8 | 16.1 | 0.00 | 0.00 | 0.00 | 71 | 1006.7 |
| 20260507103008 | 18 | 31 | 8.0 | 19.3 | 0.00 | 0.00 | 0.00 | 73 | 1006.7 |
| 20260507102007 | 18 | 23 | 8.0 | 22.5 | 0.00 | 0.00 | 0.00 | 73 | 1006.6 |
| 20260507101006 | 18 | 34 | 9.7 | 27.4 | 0.00 | 0.00 | 0.00 | 73 | 1006.3 |
| 20260507100008 | 18 | 33 | 9.7 | 27.4 | 0.00 | 0.00 | 0.00 | 72 | 1006.4 |
| 20260507095007 | 19 | 18 | 6.4 | 24.1 | 0.00 | 0.00 | 0.00 | 73 | 1006.5 |
| 20260507094007 | 20 | 43 | 6.4 | 24.1 | 0.00 | 0.00 | 0.00 | 72 | 1006.6 |
| 20260507093007 | 19 | 36 | 6.4 | 24.1 | 0.00 | 0.00 | 0.00 | 69 | 1006.4 |
| 20260507092007 | 19 | 47 | 6.4 | 25.7 | 0.00 | 0.00 | 0.00 | 71 | 1006.4 |
| 20260507091006 | 19 | 28 | 3.2 | 12.9 | 0.00 | 0.00 | 0.00 | 68 | 1006.4 |
| 20260507090007 | 20 | 43 | 3.2 | 19.3 | 0.00 | 0.00 | 0.00 | 67 | 1006.3 |
| 20260507085008 | 20 | 52 | 4.8 | 17.7 | 0.00 | 0.00 | 0.00 | 66 | 1006.2 |
| 20260507084007 | 20 | 73 | 4.8 | 16.1 | 0.00 | 0.00 | 0.00 | 67 | 1006.3 |
| 20260507083008 | 20 | 90 | 3.2 | 16.1 | 0.00 | 0.00 | 0.00 | 68 | 1006.7 |
| 20260507082007 | 20 | 80 | 1.6 | 11.3 | 0.00 | 0.00 | 0.00 | 67 | 1006.2 |
| 20260507081007 | 18 | 91 | 4.8 | 17.7 | 0.00 | 0.00 | 0.00 | 71 | 1006.3 |
| 20260507080008 | 18 | 107 | 1.6 | 11.3 | 0.00 | 0.00 | 0.00 | 71 | 1006.4 |
| 20260507075006 | 18 | 357 | 1.6 | 4.8 | 0.00 | 0.00 | 0.00 | 72 | 1006.3 |
| 20260507074007 | 17 | 342 | 3.2 | 8.0 | 0.00 | 0.00 | 0.00 | 73 | 1006.3 |
| 20260507073008 | 17 | 334 | 1.6 | 12.9 | 0.00 | 0.00 | 0.00 | 73 | 1006.4 |
| 20260507072007 | 17 | 1 | 3.2 | 11.3 | 0.00 | 0.00 | 0.00 | 73 | 1006.3 |
| 20260507071007 | 17 | 306 | 4.8 | 16.1 | 0.00 | 0.00 | 0.00 | 74 | 1006.3 |
| 20260507070012 | 17 | 317 | 4.8 | 17.7 | 0.00 | 0.00 | 0.00 | 73 | 1006.2 |
| 20260507065006 | 17 | 274 | 3.2 | 12.9 | 0.00 | 0.00 | 0.00 | 73 | 1006.3 |
| 20260507064007 | 17 | 257 | 1.6 | 8.0 | 0.00 | 0.00 | 0.00 | 73 | 1006.5 |
| 20260507063007 | 16 | 250 | 1.6 | 8.0 | 0.00 | 0.00 | 0.00 | 73 | 1006.4 |
| 20260507062006 | 16 | 247 | 3.2 | 8.0 | 0.00 | 0.00 | 0.00 | 73 | 1006.3 |
| 20260507061006 | 16 | 270 | 1.6 | 6.4 | 0.00 | 0.00 | 0.00 | 73 | 1006.4 |
| 20260507060007 | 16 | 273 | 1.6 | 6.4 | 0.00 | 0.00 | 0.00 | 74 | 1006.4 |
| 20260507055006 | 16 | 282 | 3.2 | 8.0 | 0.00 | 0.00 | 0.00 | 72 | 1006.4 |
| 20260507054006 | 16 | 332 | 3.2 | 9.7 | 0.00 | 0.00 | 0.00 | 72 | 1006.0 |
| 20260507053007 | 16 | 359 | 3.2 | 11.3 | 0.00 | 0.00 | 0.00 | 71 | 1006.2 |
| 20260507052007 | 16 | 336 | 3.2 | 12.9 | 0.00 | 0.00 | 0.00 | 69 | 1005.7 |
| 20260507051006 | 16 | 199 | 0.0 | 8.0 | 0.00 | 0.00 | 0.00 | 69 | 1005.7 |
| 20260507050007 | 16 | 206 | 1.6 | 6.4 | 0.00 | 0.00 | 0.00 | 70 | 1005.5 |
| 20260507045006 | 16 | 234 | 1.6 | 6.4 | 0.00 | 0.00 | 0.00 | 71 | 1005.3 |
| 20260507044006 | 16 | 1 | 0.0 | 4.8 | 0.00 | 0.00 | 0.00 | 70 | 1004.9 |
| 20260507043006 | 16 | 1 | 0.0 | 4.8 | 0.00 | 0.00 | 0.00 | 69 | 1005.1 |
| 20260507042006 | 16 | 1 | 0.0 | 3.2 | 0.00 | 0.00 | 0.00 | 69 | 1004.7 |
| 20260507041007 | 16 | 1 | 0.0 | 3.2 | 0.00 | 0.00 | 0.00 | 69 | 1004.7 |
| 20260507040007 | 16 | 319 | 1.6 | 4.8 | 0.00 | 0.00 | 0.00 | 67 | 1004.8 |
| 20260507035007 | 16 | 317 | 1.6 | 6.4 | 0.00 | 0.00 | 0.00 | 67 | 1004.5 |
| 20260507034006 | 16 | 250 | 1.6 | 6.4 | 0.00 | 0.00 | 0.00 | 67 | 1004.5 |
| 20260507033006 | 16 | 244 | 1.6 | 4.8 | 0.00 | 0.00 | 0.00 | 67 | 1004.5 |
| 20260507032006 | 16 | 257 | 0.0 | 4.8 | 0.00 | 0.00 | 0.00 | 67 | 1004.3 |
| 20260507031006 | 16 | 283 | 3.2 | 12.9 | 0.00 | 0.00 | 0.00 | 67 | 1004.3 |
| 20260507030007 | 16 | 353 | 1.6 | 9.7 | 0.00 | 0.00 | 0.00 | 66 | 1004.3 |
| 20260507025007 | 16 | 289 | 3.2 | 9.7 | 0.00 | 0.00 | 0.00 | 66 | 1004.4 |
| 20260507024006 | 16 | 282 | 4.8 | 12.9 | 0.00 | 0.00 | 0.00 | 65 | 1004.4 |
| 20260507023007 | 16 | 211 | 4.8 | 12.9 | 0.00 | 0.00 | 0.00 | 65 | 1004.4 |
| 20260507022006 | 16 | 234 | 3.2 | 11.3 | 0.00 | 0.00 | 0.00 | 67 | 1004.0 |
| 20260507021006 | 16 | 191 | 1.6 | 6.4 | 0.00 | 0.00 | 0.00 | 67 | 1003.9 |
| 20260507020006 | 16 | 112 | 1.6 | 4.8 | 0.00 | 0.00 | 0.00 | 65 | 1003.8 |
| 20260507015007 | 16 | 135 | 3.2 | 6.4 | 0.00 | 0.00 | 0.00 | 65 | 1003.8 |
| 20260507014007 | 16 | 154 | 3.2 | 8.0 | 0.00 | 0.00 | 0.00 | 68 | 1003.6 |
| 20260507013007 | 15 | 182 | 3.2 | 8.0 | 0.00 | 0.00 | 0.00 | 70 | 1003.3 |
| 20260507012006 | 15 | 140 | 1.6 | 6.4 | 0.00 | 0.00 | 0.00 | 69 | 1003.3 |
| 20260507011006 | 15 | 215 | 0.0 | 3.2 | 0.00 | 0.00 | 0.00 | 69 | 1003.4 |
| 20260507010007 | 16 | 333 | 1.6 | 6.4 | 0.00 | 0.00 | 0.00 | 67 | 1003.1 |
| 20260507005006 | 17 | 6 | 3.2 | 12.9 | 0.00 | 0.00 | 0.00 | 64 | 1003.0 |
| 20260507004006 | 17 | 354 | 3.2 | 12.9 | 0.00 | 0.00 | 0.00 | 62 | 1002.9 |
| 20260507003007 | 17 | 309 | 3.2 | 12.9 | 0.00 | 0.00 | 0.00 | 58 | 1003.1 |
| 20260507002007 | 17 | 170 | 3.2 | 17.7 | 0.00 | 0.00 | 0.00 | 59 | 1003.2 |
| 20260507001007 | 17 | 135 | 6.4 | 22.5 | 0.00 | 0.00 | 0.00 | 58 | 1003.2 |
| 20260507000007 | 18 | 120 | 9.7 | 29.0 | 0.00 | 0.00 | 0.00 | 58 | 1003.2 |
| 20260506235006 | 18 | 37 | 3.2 | 17.7 | 0.00 | 0.00 | 0.00 | 58 | 1003.5 |
| 20260506234006 | 18 | 247 | 9.7 | 35.4 | 0.00 | 0.00 | 0.00 | 59 | 1003.3 |
| 20260506233006 | 18 | 195 | 14.5 | 53.1 | 0.00 | 0.00 | 0.00 | 58 | 1003.3 |
| 20260506232007 | 18 | 226 | 12.9 | 35.4 | 0.00 | 0.00 | 0.00 | 57 | 1003.4 |
| 20260506231007 | 18 | 184 | 16.1 | 38.6 | 0.00 | 0.00 | 0.00 | 57 | 1003.6 |
| 20260506230008 | 18 | 202 | 19.3 | 37.0 | 0.00 | 0.00 | 0.00 | 56 | 1003.2 |
| 20260506225006 | 18 | 191 | 19.3 | 45.1 | 0.00 | 0.00 | 0.00 | 55 | 1003.5 |
| 20260506224007 | 17 | 163 | 19.3 | 45.1 | 0.00 | 0.00 | 0.00 | 54 | 1003.5 |
| 20260506223008 | 17 | 162 | 19.3 | 41.8 | 0.00 | 0.00 | 0.00 | 56 | 1003.7 |
| 20260506222007 | 18 | 162 | 24.1 | 53.1 | 0.00 | 0.00 | 0.00 | 55 | 1003.8 |
| 20260506221007 | 18 | 195 | 25.7 | 56.3 | 0.00 | 0.00 | 0.00 | 51 | 1003.6 |
| 20260506220011 | 18 | 169 | 29.0 | 57.9 | 0.00 | 0.00 | 0.00 | 53 | 1003.8 |
| 20260506215007 | 18 | 189 | 29.0 | 48.3 | 0.00 | 0.00 | 0.00 | 53 | 1003.8 |
| 20260506214007 | 18 | 184 | 27.4 | 48.3 | 0.00 | 0.00 | 0.00 | 53 | 1003.6 |
| 20260506213007 | 18 | 196 | 24.1 | 49.9 | 0.00 | 0.00 | 0.00 | 54 | 1003.8 |
| 20260506212007 | 18 | 194 | 27.4 | 53.1 | 0.00 | 0.00 | 0.00 | 54 | 1003.8 |
| 20260506211007 | 18 | 193 | 20.9 | 43.5 | 0.00 | 0.00 | 0.00 | 54 | 1003.9 |
| 20260506210008 | 18 | 193 | 27.4 | 48.3 | 0.00 | 0.00 | 0.00 | 55 | 1004.0 |
| 20260506205007 | 18 | 179 | 30.6 | 57.9 | 0.00 | 0.00 | 0.00 | 56 | 1004.0 |
| 20260506204007 | 18 | 213 | 33.8 | 64.4 | 0.00 | 0.00 | 0.00 | 58 | 1004.2 |